| time (UTC) | temp F | wind direction | speed MPH | gust MPH | rain 1hr in | rain 24hr in | rain mn in | humidity % | barometer mb |
| 20260509034509 | 53 | 250 | 0.0 | 3.0 | 0.00 | 0.00 | 0.00 | 77 | 1022.8 |
| 20260509033007 | 53 | 220 | 0.0 | 2.0 | 0.00 | 0.00 | 0.00 | 76 | 1022.7 |
| 20260509031506 | 53 | 153 | 0.0 | 2.0 | 0.00 | 0.00 | 0.00 | 76 | 1022.6 |
| 20260509030007 | 54 | 252 | 1.0 | 3.0 | 0.00 | 0.00 | 0.00 | 75 | 1022.5 |
| 20260509024503 | 54 | 271 | 0.0 | 3.0 | 0.00 | 0.00 | 0.00 | 74 | 1022.4 |
| 20260509023003 | 55 | 144 | 0.0 | 3.0 | 0.00 | 0.00 | 0.00 | 73 | 1022.4 |
| 20260509021502 | 56 | 209 | 1.0 | 5.0 | 0.00 | 0.00 | 0.00 | 71 | 1022.4 |
| 20260509020002 | 56 | 203 | 0.0 | 3.0 | 0.00 | 0.00 | 0.00 | 72 | 1022.4 |
| 20260509014502 | 57 | 224 | 0.0 | 5.0 | 0.00 | 0.00 | 0.00 | 72 | 1022.4 |
| 20260509013001 | 55 | 120 | 1.0 | 4.0 | 0.00 | 0.00 | 0.00 | 75 | 1022.4 |
| 20260509011600 | 55 | 319 | 0.0 | 5.0 | 0.00 | 0.00 | 0.00 | 74 | 1022.4 |
| 20260509010059 | 56 | 269 | 1.0 | 4.0 | 0.00 | 0.00 | 0.00 | 72 | 1022.3 |
| 20260509004621 | 56 | 170 | 1.0 | 6.0 | 0.00 | 0.00 | 0.00 | 74 | 1022.4 |
| 20260509003058 | 56 | 252 | 1.0 | 6.0 | 0.00 | 0.00 | 0.00 | 74 | 1022.3 |
| 20260509001557 | 57 | 302 | 2.0 | 8.0 | 0.00 | 0.00 | 0.00 | 71 | 1022.4 |
| 20260509000056 | 58 | 115 | 1.0 | 7.0 | 0.00 | 0.00 | 0.00 | 70 | 1022.4 |
| 20260508234553 | 57 | 349 | 2.0 | 7.0 | 0.00 | 0.00 | 0.00 | 72 | 1022.3 |
| 20260508233106 | 56 | 160 | 1.0 | 6.0 | 0.00 | 0.00 | 0.00 | 74 | 1022.3 |
| 20260508231556 | 56 | 250 | 1.0 | 6.0 | 0.00 | 0.00 | 0.00 | 75 | 1022.4 |
| 20260508230056 | 55 | 220 | 2.0 | 7.0 | 0.00 | 0.00 | 0.00 | 76 | 1022.3 |
| 20260508224649 | 56 | 250 | 1.0 | 5.0 | 0.00 | 0.00 | 0.00 | 77 | 1022.1 |
| 20260508223049 | 55 | 262 | 3.0 | 7.0 | 0.00 | 0.00 | 0.00 | 76 | 1022.1 |
| 20260508221548 | 56 | 207 | 2.0 | 7.0 | 0.00 | 0.00 | 0.00 | 75 | 1022.2 |
| 20260508220047 | 56 | 271 | 2.0 | 8.0 | 0.00 | 0.00 | 0.00 | 77 | 1022.0 |
| 20260508214546 | 54 | 279 | 2.0 | 6.0 | 0.00 | 0.00 | 0.00 | 77 | 1022.1 |
| 20260508213046 | 54 | 155 | 0.0 | 7.0 | 0.00 | 0.00 | 0.00 | 80 | 1022.0 |
| 20260508211542 | 54 | 242 | 1.0 | 11.0 | 0.00 | 0.00 | 0.00 | 79 | 1021.9 |
| 20260508210042 | 55 | 155 | 2.0 | 7.0 | 0.00 | 0.00 | 0.00 | 78 | 1021.8 |
| 20260508204548 | 54 | 139 | 2.0 | 8.0 | 0.00 | 0.00 | 0.00 | 79 | 1021.7 |
| 20260508203050 | 54 | 111 | 1.0 | 6.0 | 0.00 | 0.00 | 0.00 | 80 | 1021.7 |
| 20260508201538 | 54 | 214 | 3.0 | 8.0 | 0.00 | 0.00 | 0.00 | 78 | 1021.6 |
| 20260508200047 | 56 | 1 | 0.0 | 9.0 | 0.00 | 0.00 | 0.00 | 77 | 1021.4 |
| 20260508194531 | 55 | 227 | 3.0 | 6.0 | 0.00 | 0.00 | 0.00 | 78 | 1021.2 |
| 20260508193028 | 54 | 120 | 0.0 | 7.0 | 0.00 | 0.00 | 0.00 | 78 | 1021.1 |
| 20260508191534 | 54 | 143 | 2.0 | 6.0 | 0.00 | 0.00 | 0.00 | 77 | 1021.1 |
| 20260508190026 | 54 | 126 | 2.0 | 8.0 | 0.00 | 0.00 | 0.00 | 78 | 1021.0 |
| 20260508184525 | 54 | 138 | 1.0 | 5.0 | 0.00 | 0.00 | 0.00 | 78 | 1020.8 |
| 20260508183023 | 54 | 252 | 1.0 | 9.0 | 0.00 | 0.00 | 0.00 | 80 | 1020.7 |
| 20260508181522 | 53 | 264 | 2.0 | 6.0 | 0.00 | 0.00 | 0.00 | 81 | 1020.6 |
| 20260508180020 | 52 | 162 | 1.0 | 4.0 | 0.00 | 0.00 | 0.00 | 83 | 1020.3 |
| 20260508174525 | 52 | 134 | 2.0 | 8.0 | 0.00 | 0.00 | 0.00 | 82 | 1020.3 |
| 20260508173017 | 52 | 98 | 1.0 | 7.0 | 0.00 | 0.00 | 0.00 | 82 | 1020.1 |
| 20260508171524 | 53 | 250 | 2.0 | 6.0 | 0.00 | 0.00 | 0.00 | 81 | 1019.9 |
| 20260508170014 | 53 | 136 | 0.0 | 6.0 | 0.00 | 0.00 | 0.00 | 81 | 1019.6 |
| 20260508164511 | 53 | 220 | 2.0 | 5.0 | 0.00 | 0.00 | 0.00 | 81 | 1019.4 |
| 20260508163010 | 53 | 172 | 0.0 | 6.0 | 0.00 | 0.00 | 0.00 | 81 | 1019.3 |
| 20260508161509 | 54 | 156 | 2.0 | 5.0 | 0.00 | 0.00 | 0.00 | 81 | 1019.1 |
| 20260508160013 | 53 | 181 | 1.0 | 7.0 | 0.00 | 0.00 | 0.00 | 83 | 1019.0 |
| 20260508154504 | 52 | 182 | 1.0 | 5.0 | 0.00 | 0.00 | 0.00 | 85 | 1019.2 |
| 20260508153003 | 51 | 149 | 1.0 | 3.0 | 0.00 | 0.00 | 0.00 | 86 | 1019.0 |
| 20260508151604 | 51 | 120 | 1.0 | 5.0 | 0.00 | 0.00 | 0.00 | 85 | 1018.9 |
| 20260508150057 | 51 | 127 | 0.0 | 2.0 | 0.00 | 0.00 | 0.00 | 86 | 1018.8 |
| 20260508144555 | 51 | 226 | 0.0 | 3.0 | 0.00 | 0.00 | 0.00 | 88 | 1018.8 |
| 20260508143057 | 50 | 123 | 1.0 | 4.0 | 0.00 | 0.00 | 0.00 | 88 | 1018.3 |
| 20260508141551 | 50 | 214 | 0.0 | 3.0 | 0.00 | 0.00 | 0.00 | 90 | 1018.2 |
| 20260508140054 | 49 | 138 | 0.0 | 3.0 | 0.00 | 0.00 | 0.00 | 91 | 1018.0 |
| 20260508134551 | 49 | 260 | 0.0 | 3.0 | 0.00 | 0.00 | 0.00 | 91 | 1017.8 |
| 20260508133048 | 49 | 130 | 0.0 | 4.0 | 0.00 | 0.00 | 0.00 | 92 | 1017.7 |
| 20260508131547 | 49 | 278 | 0.0 | 5.0 | 0.00 | 0.00 | 0.00 | 92 | 1017.6 |
| 20260508130058 | 49 | 144 | 1.0 | 6.0 | 0.00 | 0.00 | 0.00 | 93 | 1017.5 |
| 20260508124548 | 49 | 221 | 1.0 | 6.0 | 0.00 | 0.00 | 0.00 | 92 | 1017.5 |
| 20260508123050 | 49 | 160 | 1.0 | 5.0 | 0.00 | 0.00 | 0.00 | 92 | 1017.4 |
| 20260508121542 | 49 | 180 | 2.0 | 6.0 | 0.00 | 0.00 | 0.00 | 92 | 1017.3 |
| 20260508120036 | 49 | 131 | 2.0 | 6.0 | 0.00 | 0.00 | 0.00 | 92 | 1017.4 |
| 20260508114535 | 49 | 250 | 0.0 | 4.0 | 0.00 | 0.00 | 0.00 | 92 | 1017.2 |
| 20260508113030 | 49 | 169 | 0.0 | 3.0 | 0.00 | 0.00 | 0.00 | 92 | 1017.0 |
| 20260508111529 | 49 | 119 | 0.0 | 3.0 | 0.00 | 0.00 | 0.00 | 91 | 1017.0 |
| 20260508110033 | 49 | 156 | 0.0 | 2.0 | 0.00 | 0.00 | 0.00 | 91 | 1017.0 |
| 20260508104529 | 49 | 226 | 0.0 | 1.0 | 0.00 | 0.00 | 0.00 | 91 | 1017.0 |
| 20260508103030 | 49 | 193 | 0.0 | 3.0 | 0.00 | 0.00 | 0.00 | 90 | 1016.8 |
| 20260508101527 | 49 | 201 | 0.0 | 3.0 | 0.00 | 0.00 | 0.00 | 90 | 1016.9 |
| 20260508100027 | 49 | 158 | 0.0 | 2.0 | 0.00 | 0.00 | 0.00 | 90 | 1016.9 |
| 20260508094540 | 49 | 156 | 0.0 | 2.0 | 0.00 | 0.00 | 0.00 | 90 | 1016.7 |
| 20260508093027 | 49 | 197 | 0.0 | 3.0 | 0.00 | 0.00 | 0.00 | 90 | 1016.7 |
| 20260508091540 | 49 | 151 | 0.0 | 1.0 | 0.00 | 0.00 | 0.00 | 89 | 1016.7 |
| 20260508090026 | 49 | 219 | 0.0 | 1.0 | 0.00 | 0.00 | 0.00 | 90 | 1016.6 |
| 20260508084522 | 49 | 153 | 0.0 | 2.0 | 0.00 | 0.00 | 0.00 | 90 | 1016.7 |
| 20260508083020 | 49 | 163 | 0.0 | 0.0 | 0.00 | 0.00 | 0.00 | 90 | 1016.8 |
| 20260508081530 | 49 | 148 | 0.0 | 1.0 | 0.00 | 0.00 | 0.00 | 91 | 1016.8 |
| 20260508080017 | 49 | 155 | 0.0 | 1.0 | 0.00 | 0.00 | 0.00 | 91 | 1016.9 |
| 20260508074516 | 49 | 139 | 0.0 | 1.0 | 0.00 | 0.00 | 0.00 | 91 | 1017.1 |
| 20260508073014 | 49 | 150 | 0.0 | 3.0 | 0.00 | 0.00 | 0.00 | 91 | 1017.1 |
| 20260508071520 | 49 | 119 | 0.0 | 1.0 | 0.00 | 0.00 | 0.00 | 91 | 1017.1 |
| 20260508070012 | 49 | 134 | 0.0 | 3.0 | 0.00 | 0.00 | 0.00 | 91 | 1017.1 |
| 20260508064514 | 49 | 135 | 1.0 | 4.0 | 0.00 | 0.00 | 0.00 | 91 | 1017.2 |
| 20260508063010 | 49 | 120 | 1.0 | 3.0 | 0.00 | 0.00 | 0.00 | 92 | 1017.2 |
| 20260508061510 | 49 | 148 | 0.0 | 2.0 | 0.00 | 0.00 | 0.00 | 91 | 1017.3 |
| 20260508060019 | 49 | 124 | 0.0 | 3.0 | 0.00 | 0.00 | 0.00 | 91 | 1017.4 |
| 20260508054509 | 49 | 129 | 0.0 | 2.0 | 0.00 | 0.00 | 0.00 | 90 | 1017.4 |
| 20260508053009 | 50 | 209 | 1.0 | 4.0 | 0.00 | 0.00 | 0.00 | 90 | 1017.4 |
| 20260508051507 | 50 | 156 | 0.0 | 3.0 | 0.00 | 0.00 | 0.00 | 90 | 1017.3 |
| 20260508050009 | 50 | 160 | 0.0 | 3.0 | 0.00 | 0.00 | 0.00 | 90 | 1017.2 |
| 20260508044507 | 50 | 170 | 0.0 | 3.0 | 0.00 | 0.00 | 0.00 | 90 | 1017.3 |
| 20260508043005 | 50 | 171 | 0.0 | 3.0 | 0.00 | 0.00 | 0.00 | 90 | 1017.5 |
| 20260508041504 | 51 | 222 | 0.0 | 4.0 | 0.00 | 0.00 | 0.00 | 89 | 1017.6 |
| 20260508040006 | 51 | 156 | 1.0 | 4.0 | 0.00 | 0.00 | 0.00 | 88 | 1017.6 |